Regional Weather Roundup
Issued by NWS Green Bay, WI

Home | Current Version | Previous Version | Text Only | Print | Product List | Glossary On
Versions: 1 2 3 4 5 6 7 8 9 10 11 12 13 14 15 16 17 18 19 20 21 22 23 24 25 26 27 28 29 30 31 32 33 34 35 36 37 38 39 40 41 42 43 44 45 46 47 48 49 50
000
ASUS43 KGRB 291200
RWRGRB

NORTH-CENTRAL AND NORTHEAST WISCONSIN REGIONAL WEATHER ROUNDUP
NATIONAL WEATHER SERVICE GREEN BAY WI
700 AM CDT WED MAR 29 2017

WIZ005-009-010>012-018-019-291300-
NORTH CENTRAL WISCONSIN

CITY           SKY/WX    TMP DP  RH WIND       PRES   REMARKS
IRONWOOD       CLOUDY    31  27  85 E8        30.31R
MANITOWISH WTR NOT AVBL
ARBOR VITAE    NOT AVBL
EAGLE RIVER    NOT AVBL
LAND O LAKES   NOT AVBL
RHINELANDER    CLOUDY    30  26  85 E5        30.30R
PHILLIPS       NOT AVBL
ANTIGO         NOT AVBL
TOMAHAWK       NOT AVBL
MERRILL        NOT AVBL
$$

WIZ013-073-291300-
NORTHEAST WISCONSIN

CITY           SKY/WX    TMP DP  RH WIND       PRES   REMARKS
IRON MOUNTAIN  CLEAR     25  21  85 CALM      30.33R
MARINETTE        N/A    N/A N/A N/A MISG        N/A
$$

WIZ017-030-035>037-045-291300-
CENTRAL WISCONSIN

CITY           SKY/WX    TMP DP  RH WIND       PRES   REMARKS
MEDFORD        NOT AVBL
WAUSAU         PTCLDY    31  28  89 CALM      30.28R
MOSINEE        PTCLDY    36  28  75 E7        30.29R
MARSHFIELD     PTCLDY    36  28  73 E8        30.26R
WISC RAPIDS    PTCLDY    36  30  79 E5        30.29R
STEVENS POINT  NOT AVBL
WAUPACA        NOT AVBL
SHAWANO        NOT AVBL
CLINTONVILLE   NOT AVBL
WAUTOMA        MOCLDY    35  31  85 NE6       30.29R
$$

WIZ038-039-048-051-291300-
FOX VALLEY

CITY           SKY/WX    TMP DP  RH WIND       PRES   REMARKS
NWS GREEN BAY  CLEAR     33  32  96 NE8       30.31R
APPLETON       PTCLDY    36  28  75 NE6       30.28R
OSHKOSH        PTCLDY    37  30  75 NE5       30.29R
FOND DU LAC    PTCLDY    36  30  79 NE5       30.29R
$$

WIZ022-050-052-291300-
EAST CENTRAL WISCONSIN

CITY           SKY/WX    TMP DP  RH WIND       PRES   REMARKS
EPHRAIM        NOT AVBL
WASHINGTON ISL NOT AVBL
STURGEON BAY   CLEAR     35  28  75 NE8       30.30R
MANITOWOC      NOT AVBL
SHEBOYGAN      CLOUDY    33  32  96 NE5       30.29R
$$

LMZ563-521-522-541>543-291300-
LAKESHORE

STATION/POSITION TIME  TEMP    WIND        PRES    VSBY  WAVE
                       AIR SEA DIR/SP/G                  HT/PER
                 (UTC) (F)     (DEG/KT/KT) (MB)    (MI)  (FT/S)
SHEBOYGAN LKSHOR 1100   37     360/  9/ 10 1026.0R
KEWAUNEE LKSHORE 1130   36      30/  7/ 10 1025.9R
NORTHPORT PIER   1140   32     360/  3/  4 1027.1R
SISTER BAY LKSHO 1106   32        CALM       N/A
CHAMBERS ISLAND  1140   32      10/  9/ 11 1027.1R
MENOMINEE LKSHOR 1130   33      10/  9/ 10 1026.4R
$$




USA.gov is the U.S. government's official web portal to all federal, state and local government web resources and services.